Location: Unspecified
(34.4950°S, 58.5160°W)
Time: 03:48:07
(UTC+00:00)

Cosmos 2112 Rocket - Pass Details

Date: 04 December 2021
Orbit: 756 x 786 km, 74.1° (Epoch: 23 January)

Event Time Altitude Azimuth Distance (km) Brightness Sun altitude
Rises 23:30:02 0° 195° (SSW) 3,256 8.1 -7.1°
Reaches altitude 10° 23:32:26 10° 192° (SSW) 2,327 7.2 -7.5°
Maximum altitude 23:37:43 71° 108° (ESE) 821 4.1 -8.4°
Drops below altitude 10° 23:42:58 10° 24° (NNE) 2,317 6.0 -9.3°
Enters shadow 23:43:38 - 23° (NNE) 2,572 6.2 -9.4°
